User: anonymous   Login
Location: Unspecified
(0.0000°N, 0.0000°E)
Time: 03:50:06
(UTC+00:00)
Language:

PAZ - Orbit

View from above orbital plane
View from above orbital plane
View from above satellite
View from above satellite

Ground track
Ground track

The orbit data is extracted from the following two-line orbital elements,

1 43215U 18020A   19018.79314733  .00000159  00000-0  10764-4 0  9999
2 43215  97.4456  27.9250 0001814  78.0611   8.1949 15.19154734 50134
Epoch (UTC): 18 January 2019 19:02:07
Eccentricity: 0.0001814
inclination: 97.4456°
perigee height: 507 km
apogee height: 509 km
right ascension of ascending node: 27.9250°
argument of perigee: 78.0611°
revolutions per day: 15.19154734
mean anomaly at epoch: 8.1949°
orbit number at epoch: 5013

The dashed part of the orbit path shows where the satellite is in the earth's shadow,  

DLR